2019-146T00:00:24.041,   1, 180,   1,    30,   4,          0,     41.614,  99294.559,    44.864,    -5.989,     0.852,   194.341, 2, 5.486E-04, -1.00,   2,  2.795E-02,  3.123E-04,  1.986E-11,  1.045E-13,  4.434E+03,  2.334E+01, 255
2019-146T00:00:54.041,   1, 180,   1,    30,   4,          0,     41.614,  99294.559,    44.861,    -5.988,     0.852,   194.039, 2, 5.486E-04, -1.00,   2,  2.690E-02,  3.041E-04,  1.865E-11,  1.023E-13,  4.328E+03,  2.373E+01, 255
2019-146T00:01:24.042,   1, 180,   1,    30,   4,          0,     41.614,  99294.559,    44.858,    -5.988,     0.852,   193.737, 2, 5.486E-04, -1.00,   2,  2.947E-02,  3.275E-04,  1.924E-11,  1.030E-13,  4.074E+03,  2.181E+01, 255
2019-146T00:01:54.042,   1, 180,   1,    30,   4,          0,     41.614,  99294.559,    44.855,    -5.987,     0.852,   193.434, 2, 5.486E-04, -1.00,   2,  2.717E-02,  3.047E-04,  1.835E-11,  1.002E-13,  4.216E+03,  2.302E+01, 255
2019-146T00:02:24.042,   1, 180,   1,    30,   4,          0,     41.614,  99294.559,    44.853,    -5.986,     0.852,   193.132, 2, 5.486E-04, -1.00,   2,  2.516E-02,  2.962E-04,  1.826E-11,  1.031E-13,  4.531E+03,  2.558E+01, 255
2019-146T00:02:54.043,   1, 180,   1,    30,   4,          0,     41.614,  99294.559,    44.850,    -5.985,     0.852,   192.829, 2, 5.486E-04, -1.00,   2,  2.410E-02,  2.879E-04,  1.788E-11,  1.011E-13,  4.629E+03,  2.617E+01, 255
2019-146T00:03:24.043,   1, 180,   1,    30,   4,          0,     41.614,  99294.559,    44.847,    -5.985,     0.852,   192.527, 2, 5.486E-04, -1.00,   2,  2.364E-02,  3.011E-04,  1.623E-11,  9.493E-14,  4.285E+03,  2.506E+01, 255
2019-146T00:03:54.043,   1, 180,   1,    30,   4,          0,     41.614,  99294.559,    44.844,    -5.984,     0.852,   192.225, 2, 5.486E-04, -1.00,   2,  2.554E-02,  2.945E-04,  1.824E-11,  9.845E-14,  4.458E+03,  2.406E+01, 255
2019-146T00:04:24.044,   1, 180,   1,    30,   4,          0,     41.614,  99294.559,    44.841,    -5.983,     0.852,   191.922, 2, 5.486E-04, -1.00,   2,  2.678E-02,  3.206E-04,  2.043E-11,  1.046E-13,  4.762E+03,  2.438E+01, 255
2019-146T00:04:54.044,   1, 180,   1,    30,   4,          0,     41.614,  99294.559,    44.838,    -5.983,     0.852,   191.620, 2, 5.486E-04, -1.00,   4,  2.833E-02,  3.201E-04,  2.230E-11,  1.228E-13,  4.914E+03,  2.706E+01, 255
2019-146T00:05:24.044,   1, 180,   1,    30,   4,          0,     41.614,  99294.559,    44.836,    -5.982,     0.852,   191.317, 2, 5.486E-04, -1.00,   2,  2.713E-02,  3.070E-04,  2.239E-11,  1.087E-13,  5.151E+03,  2.501E+01, 255
2019-146T00:05:54.045,   1, 180,   1,    30,   4,          0,     41.614,  99294.559,    44.833,    -5.981,     0.852,   191.015, 2, 5.486E-04, -1.00,   2,  2.576E-02,  3.039E-04,  2.241E-11,  1.094E-13,  5.430E+03,  2.651E+01, 255
2019-146T00:06:24.045,   1, 180,   1,    30,   4,          0,     41.614,  99294.559,    44.830,    -5.980,     0.852,   190.712, 2, 5.486E-04, -1.00,   2,  2.278E-02,  2.996E-04,  2.174E-11,  1.111E-13,  5.957E+03,  3.045E+01, 255
2019-146T00:06:54.045,   1, 180,   1,    30,   4,          0,     41.614,  99294.559,    44.827,    -5.980,     0.852,   190.410, 2, 5.486E-04, -1.00,   2,  2.391E-02,  3.062E-04,  2.142E-11,  1.096E-13,  5.591E+03,  2.862E+01, 255
2019-146T00:07:24.046,   1, 180,   1,    30,   4,          0,     41.614,  99294.559,    44.824,    -5.979,     0.852,   190.108, 2, 5.486E-04, -1.00,   2,  2.399E-02,  3.055E-04,  1.980E-11,  1.024E-13,  5.152E+03,  2.664E+01, 255
2019-146T00:07:54.046,   1, 180,   1,    30,   4,          0,     41.614,  99294.559,    44.821,    -5.978,     0.852,   189.805, 2, 5.486E-04, -1.00,   2,  2.485E-02,  3.012E-04,  2.068E-11,  1.044E-13,  5.193E+03,  2.622E+01, 255
2019-146T00:08:24.046,   1, 180,   1,    30,   4,          0,     41.614,  99294.559,    44.818,    -5.977,     0.852,   189.503, 2, 5.486E-04, -1.00,   2,  2.559E-02,  3.126E-04,  2.121E-11,  1.054E-13,  5.172E+03,  2.571E+01, 255
2019-146T00:08:54.047,   1, 180,   1,    30,   4,          0,     41.614,  99294.559,    44.816,    -5.977,     0.852,   189.200, 2, 5.486E-04, -1.00,   2,  2.557E-02,  3.080E-04,  2.281E-11,  1.100E-13,  5.568E+03,  2.684E+01, 255
2019-146T00:09:24.047,   1, 180,   1,    30,   4,          0,     41.614,  99294.559,    44.813,    -5.976,     0.852,   188.898, 2, 5.486E-04, -1.00,   2,  3.075E-02,  3.245E-04,  2.715E-11,  1.165E-13,  5.511E+03,  2.364E+01, 255
2019-146T00:09:54.047,   1, 180,   1,    30,   4,          0,     41.614,  99294.559,    44.810,    -5.975,     0.852,   188.596, 2, 5.486E-04, -1.00,   2,  3.552E-02,  3.322E-04,  2.937E-11,  1.182E-13,  5.161E+03,  2.076E+01, 255
2019-146T00:10:24.048,   1, 180,   1,    30,   4,          0,     41.614,  99294.559,    44.807,    -5.975,     0.852,   188.293, 2, 5.486E-04, -1.00,  12,  3.398E-02,  3.743E-04,  2.158E-11,  1.332E-13,  3.965E+03,  2.447E+01, 255
2019-146T00:10:54.048,   1, 180,   1,    30,   4,          0,     41.614,  99294.559,    44.804,    -5.974,     0.852,   187.991, 2, 5.486E-04, -1.00,   2,  3.710E-02,  3.437E-04,  2.235E-11,  1.072E-13,  3.760E+03,  1.804E+01, 255
2019-146T00:11:24.049,   1, 180,   1,    30,   4,          0,     41.614,  99294.559,    44.801,    -5.973,     0.852,   187.688, 2, 5.486E-04, -1.00,   2,  3.788E-02,  3.423E-04,  2.248E-11,  1.069E-13,  3.705E+03,  1.761E+01, 255
2019-146T00:11:54.049,   1, 180,   1,    30,   4,          0,     41.614,  99294.559,    44.799,    -5.972,     0.852,   187.386, 2, 5.486E-04, -1.00,   6,  3.919E-02,  3.687E-04,  2.251E-11,  1.289E-13,  3.585E+03,  2.053E+01, 255
2019-146T00:12:24.049,   1, 180,   1,    30,   4,          0,     41.614,  99294.559,    44.796,    -5.972,     0.852,   187.084, 2, 5.486E-04, -1.00,   2,  3.688E-02,  3.321E-04,  2.022E-11,  1.002E-13,  3.421E+03,  1.696E+01, 255
2019-146T00:12:54.050,   1, 180,   1,    30,   4,          0,     41.614,  99294.559,    44.793,    -5.971,     0.852,   186.781, 2, 5.486E-04, -1.00,   2,  3.606E-02,  3.387E-04,  1.902E-11,  9.974E-14,  3.292E+03,  1.727E+01, 255
2019-146T00:13:24.050,   1, 180,   1,    30,   4,          0,     41.614,  99294.559,    44.790,    -5.970,     0.852,   186.479, 2, 5.486E-04, -1.00,   2,  3.252E-02,  3.279E-04,  1.826E-11,  9.850E-14,  3.504E+03,  1.891E+01, 255
2019-146T00:13:54.050,   1, 180,   1,    30,   4,          0,     41.614,  99294.559,    44.787,    -5.969,     0.852,   186.176, 2, 5.486E-04, -1.00,   3,  3.343E-02,  4.204E-04,  1.851E-11,  1.411E-13,  3.456E+03,  2.635E+01, 255
2019-146T00:14:24.051,   1, 180,   1,    30,   4,          0,     41.614,  99294.559,    44.784,    -5.969,     0.852,   185.874, 2, 5.486E-04, -1.00,   4,  3.362E-02,  3.329E-04,  1.876E-11,  1.161E-13,  3.482E+03,  2.155E+01, 255
2019-146T00:14:54.051,   1, 180,   1,    30,   4,          0,     41.614,  99294.559,    44.781,    -5.968,     0.852,   185.571, 2, 5.486E-04, -1.00,   2,  3.265E-02,  3.338E-04,  1.870E-11,  9.749E-14,  3.574E+03,  1.864E+01, 255
2019-146T00:15:24.051,   1, 180,   1,    30,   4,          0,     41.614,  99294.559,    44.779,    -5.967,     0.852,   185.269, 2, 5.486E-04, -1.00,   2,  2.777E-02,  3.073E-04,  1.775E-11,  9.913E-14,  3.990E+03,  2.228E+01, 255
2019-146T00:15:54.052,   1, 180,   1,    30,   4,          0,     41.614,  99294.559,    44.776,    -5.967,     0.852,   184.967, 2, 5.486E-04, -1.00,   2,  2.869E-02,  3.244E-04,  1.799E-11,  1.002E-13,  3.913E+03,  2.179E+01, 255
2019-146T00:16:24.052,   1, 180,   1,    30,   4,          0,     41.614,  99294.559,    44.773,    -5.966,     0.852,   184.664, 2, 5.486E-04, -1.00,   2,  2.926E-02,  3.123E-04,  1.883E-11,  1.001E-13,  4.016E+03,  2.135E+01, 255
2019-146T00:16:54.052,   1, 180,   1,    30,   4,          0,     41.614,  99294.559,    44.770,    -5.965,     0.852,   184.362, 2, 5.486E-04, -1.00,  12,  2.827E-02,  3.483E-04,  1.834E-11,  1.253E-13,  4.049E+03,  2.767E+01, 255
2019-146T00:17:24.053,   1, 180,   1,    30,   4,          0,     41.614,  99294.559,    44.767,    -5.964,     0.852,   184.059, 2, 5.486E-04, -1.00,   3,  2.823E-02,  3.278E-04,  1.864E-11,  1.197E-13,  4.122E+03,  2.646E+01, 255
2019-146T00:17:54.053,   1, 180,   1,    30,   4,          0,     41.614,  99294.559,    44.764,    -5.964,     0.852,   183.757, 2, 5.486E-04, -1.00,  24,  2.809E-02,  3.407E-04,  1.847E-11,  1.250E-13,  4.105E+03,  2.778E+01, 255
2019-146T00:18:24.053,   1, 180,   1,    30,   4,          0,     41.614,  99294.559,    44.762,    -5.963,     0.852,   183.455, 2, 5.486E-04, -1.00,   2,  2.715E-02,  3.065E-04,  1.816E-11,  1.001E-13,  4.175E+03,  2.302E+01, 255
2019-146T00:18:54.054,   1, 180,   1,    30,   4,          0,     41.614,  99294.559,    44.759,    -5.962,     0.852,   183.152, 2, 5.486E-04, -1.00,   2,  2.545E-02,  3.059E-04,  1.683E-11,  9.717E-14,  4.128E+03,  2.383E+01, 255
2019-146T00:19:24.054,   1, 180,   1,    30,   4,          0,     41.614,  99294.559,    44.756,    -5.961,     0.852,   182.850, 2, 5.486E-04, -1.00,   2,  2.408E-02,  3.057E-04,  1.550E-11,  9.327E-14,  4.019E+03,  2.418E+01, 255
2019-146T00:19:54.054,   1, 180,   1,    30,   4,          0,     41.614,  99294.559,    44.753,    -5.961,     0.852,   182.547, 2, 5.486E-04, -1.00,   2,  2.181E-02,  2.944E-04,  1.460E-11,  9.282E-14,  4.179E+03,  2.656E+01, 255
2019-146T00:20:24.055,   1, 180,   1,    30,   4,          0,     41.614,  99294.559,    44.750,    -5.960,     0.852,   182.245, 2, 5.486E-04, -1.00,   2,  2.148E-02,  2.937E-04,  1.616E-11,  9.718E-14,  4.696E+03,  2.824E+01, 255
2019-146T00:20:54.055,   1, 180,   1,    30,   4,          0,     41.614,  99294.559,    44.747,    -5.959,     0.852,   181.942, 2, 5.486E-04, -1.00,   2,  2.186E-02,  3.011E-04,  1.626E-11,  9.747E-14,  4.642E+03,  2.783E+01, 255
2019-146T00:21:24.056,   1, 180,   1,    30,   4,          0,     41.614,  99294.559,    44.744,    -5.959,     0.852,   181.640, 2, 5.486E-04, -1.00,   2,  2.602E-02,  3.044E-04,  1.809E-11,  9.939E-14,  4.340E+03,  2.384E+01, 255
2019-146T00:21:54.056,   1, 180,   1,    30,   4,          0,     41.614,  99294.559,    44.742,    -5.958,     0.852,   181.338, 2, 5.486E-04, -1.00,   2,  3.113E-02,  3.237E-04,  1.811E-11,  9.698E-14,  3.632E+03,  1.945E+01, 255
2019-146T00:22:24.056,   1, 180,   1,    30,   4,          0,     41.614,  99294.559,    44.739,    -5.957,     0.852,   181.035, 2, 5.486E-04, -1.00,   2,  3.176E-02,  3.214E-04,  1.862E-11,  9.969E-14,  3.658E+03,  1.959E+01, 255
2019-146T00:22:54.057,   1, 180,   1,    30,   4,          0,     41.614,  99294.559,    44.736,    -5.956,     0.852,   180.733, 2, 5.486E-04, -1.00,   2,  3.446E-02,  3.523E-04,  1.993E-11,  1.042E-13,  3.610E+03,  1.887E+01, 255
2019-146T00:23:24.057,   1, 180,   1,    30,   4,          0,     41.614,  99294.559,    44.733,    -5.956,     0.852,   180.430, 2, 5.486E-04, -1.00,   2,  2.947E-02,  3.278E-04,  1.813E-11,  1.018E-13,  3.839E+03,  2.156E+01, 255
2019-146T00:23:54.057,   1, 180,   1,    30,   4,          0,     41.614,  99294.559,    44.730,    -5.955,     0.852,   180.128, 2, 5.486E-04, -1.00,   2,  1.825E-02,  2.944E-04,  1.139E-11,  9.028E-14,  3.894E+03,  3.087E+01, 255
2019-146T00:24:24.058,   1, 180,   1,    30,   4,          0,     41.614,  99294.559,    44.727,    -5.954,     0.852,   179.826, 2, 5.486E-04, -1.00,   2,  2.175E-02,  2.979E-04,  1.368E-11,  9.217E-14,  3.926E+03,  2.645E+01, 255
2019-146T00:24:54.058,   1, 180,   1,    30,   4,          0,     41.614,  99294.559,    44.725,    -5.953,     0.852,   179.523, 2, 5.486E-04, -1.00,   3,  2.838E-02,  3.490E-04,  1.769E-11,  1.205E-13,  3.891E+03,  2.651E+01, 255
2019-146T00:25:24.058,   1, 180,   1,    30,   4,          0,     41.614,  99294.559,    44.722,    -5.953,     0.852,   179.221, 2, 5.486E-04, -1.00,   2,  2.698E-02,  3.189E-04,  1.669E-11,  9.706E-14,  3.861E+03,  2.246E+01, 255
2019-146T00:25:54.059,   1, 180,   1,    30,   4,          0,     41.614,  99294.559,    44.719,    -5.952,     0.852,   178.918, 2, 5.486E-04, -1.00,   2,  2.378E-02,  2.993E-04,  1.564E-11,  9.696E-14,  4.103E+03,  2.545E+01, 255
2019-146T00:26:24.059,   1, 180,   1,    30,   4,          0,     41.614,  99294.559,    44.716,    -5.951,     0.852,   178.616, 2, 5.486E-04, -1.00,   3,  2.741E-02,  3.271E-04,  1.681E-11,  1.128E-13,  3.828E+03,  2.568E+01, 255
2019-146T00:26:54.059,   1, 180,   1,    30,   4,          0,     41.614,  99294.559,    44.713,    -5.950,     0.852,   178.314, 2, 5.486E-04, -1.00,   4,  3.016E-02,  3.217E-04,  1.854E-11,  1.138E-13,  3.836E+03,  2.354E+01, 255
2019-146T00:27:24.060,   1, 180,   1,    30,   4,          0,     41.614,  99294.559,    44.710,    -5.950,     0.852,   178.011, 2, 5.486E-04, -1.00,   2,  2.953E-02,  3.203E-04,  1.813E-11,  9.958E-14,  3.832E+03,  2.105E+01, 255
2019-146T00:27:54.060,   1, 180,   1,    30,   4,          0,     41.614,  99294.559,    44.707,    -5.949,     0.852,   177.709, 2, 5.486E-04, -1.00,   2,  2.499E-02,  3.087E-04,  1.613E-11,  9.781E-14,  4.029E+03,  2.443E+01, 255
2019-146T00:28:24.060,   1, 180,   1,    30,   4,          0,     41.614,  99294.559,    44.705,    -5.948,     0.852,   177.406, 2, 5.486E-04, -1.00,   2,  2.277E-02,  2.990E-04,  1.393E-11,  9.047E-14,  3.819E+03,  2.480E+01, 255
2019-146T00:28:54.061,   1, 180,   1,    30,   4,          0,     41.614,  99294.559,    44.702,    -5.948,     0.852,   177.104, 2, 5.486E-04, -1.00,   2,  2.085E-02,  2.868E-04,  1.264E-11,  8.637E-14,  3.783E+03,  2.585E+01, 255
2019-146T00:29:24.061,   1, 180,   1,    30,   4,          0,     41.614,  99294.559,    44.699,    -5.947,     0.852,   176.801, 2, 5.486E-04, -1.00,   2,  1.748E-02,  2.757E-04,  1.086E-11,  8.280E-14,  3.877E+03,  2.956E+01, 255
2019-146T00:29:54.061,   1, 180,   1,    30,   4,          0,     41.614,  99294.559,    44.696,    -5.946,     0.852,   176.499, 2, 5.486E-04, -1.00,   2,  1.415E-02,  2.647E-04,  8.947E-12,  7.864E-14,  3.948E+03,  3.470E+01, 255
2019-146T00:30:24.062,   1, 180,   1,    30,   4,          0,     41.614,  99294.559,    44.693,    -5.945,     0.852,   176.197, 2, 5.486E-04, -1.00,   2,  1.393E-02,  2.549E-04,  8.980E-12,  7.825E-14,  4.024E+03,  3.506E+01, 255
2019-146T00:30:54.062,   1, 180,   1,    30,   4,          0,     41.614,  99294.559,    44.690,    -5.945,     0.851,   175.894, 2, 5.486E-04, -1.00,   2,  1.523E-02,  2.624E-04,  9.141E-12,  7.771E-14,  3.746E+03,  3.185E+01, 255
2019-146T00:31:54.063,   1, 180,   1,    30,   4,          0,     41.614,  99294.559,    44.685,    -5.943,     0.851,   175.289, 2, 5.486E-04, -1.00,   2,  1.443E-02,  2.705E-04,  8.239E-12,  7.463E-14,  3.565E+03,  3.229E+01, 255
2019-146T00:32:24.063,   1, 180,   1,    30,   4,          0,     41.614,  99294.559,    44.682,    -5.942,     0.851,   174.987, 2, 5.486E-04, -1.00,   2,  1.382E-02,  2.528E-04,  8.419E-12,  7.587E-14,  3.803E+03,  3.427E+01, 255
2019-146T00:32:54.063,   1, 180,   1,    30,   4,          0,     41.614,  99294.559,    44.679,    -5.942,     0.851,   174.685, 2, 5.486E-04, -1.00,   2,  1.376E-02,  2.505E-04,  7.860E-12,  7.362E-14,  3.564E+03,  3.339E+01, 255
2019-146T00:33:24.064,   1, 180,   1,    30,   4,          0,     41.614,  99294.559,    44.676,    -5.941,     0.851,   174.382, 2, 5.486E-04, -1.00,   2,  1.459E-02,  2.600E-04,  8.132E-12,  7.408E-14,  3.478E+03,  3.168E+01, 255
2019-146T00:33:54.064,   1, 180,   1,    30,   4,          0,     41.614,  99294.559,    44.673,    -5.940,     0.851,   174.080, 2, 5.486E-04, -1.00,   2,  1.453E-02,  2.572E-04,  8.456E-12,  7.555E-14,  3.633E+03,  3.246E+01, 255
2019-146T00:34:24.065,   1, 180,   1,    30,   4,          0,     41.614,  99294.559,    44.670,    -5.940,     0.851,   173.777, 2, 5.486E-04, -1.00,   2,  1.545E-02,  2.635E-04,  8.994E-12,  7.762E-14,  3.634E+03,  3.136E+01, 255
2019-146T00:34:54.065,   1, 180,   1,    30,   4,          0,     41.614,  99294.559,    44.668,    -5.939,     0.851,   173.475, 2, 5.486E-04, -1.00,   2,  1.426E-02,  2.691E-04,  9.845E-12,  8.176E-14,  4.310E+03,  3.579E+01, 255
2019-146T00:35:24.065,   1, 180,   1,    30,   4,          0,     41.614,  99294.559,    44.665,    -5.938,     0.851,   173.172, 2, 5.486E-04, -1.00,   2,  1.392E-02,  2.739E-04,  1.047E-11,  8.557E-14,  4.694E+03,  3.838E+01, 255
2019-146T00:35:54.066,   1, 180,   1,    30,   4,          0,     41.614,  99294.559,    44.662,    -5.937,     0.851,   172.870, 2, 5.486E-04, -1.00,   2,  1.413E-02,  2.757E-04,  1.105E-11,  8.532E-14,  4.883E+03,  3.770E+01, 255
2019-146T00:36:24.066,   1, 180,   1,    30,   4,          0,     41.614,  99294.559,    44.659,    -5.937,     0.851,   172.568, 2, 5.486E-04, -1.00,   2,  1.412E-02,  2.646E-04,  1.103E-11,  8.548E-14,  4.873E+03,  3.778E+01, 255
2019-146T00:36:54.066,   1, 180,   1,    30,   4,          0,     41.614,  99294.559,    44.656,    -5.936,     0.851,   172.265, 2, 5.486E-04, -1.00,   2,  1.501E-02,  2.800E-04,  1.099E-11,  8.625E-14,  4.570E+03,  3.585E+01, 255
2019-146T00:37:24.067,   1, 180,   1,    30,   4,          0,     41.614,  99294.559,    44.653,    -5.935,     0.851,   171.963, 2, 5.486E-04, -1.00,   2,  1.436E-02,  2.688E-04,  1.093E-11,  8.634E-14,  4.748E+03,  3.752E+01, 255
2019-146T00:37:54.067,   1, 180,   1,    30,   4,          0,     41.614,  99294.559,    44.650,    -5.934,     0.851,   171.660, 2, 5.486E-04, -1.00,   2,  1.448E-02,  2.707E-04,  1.074E-11,  8.540E-14,  4.632E+03,  3.682E+01, 255
2019-146T00:38:24.067,   1, 180,   1,    30,   4,          0,     41.614,  99294.559,    44.648,    -5.934,     0.851,   171.358, 2, 5.486E-04, -1.00,   2,  1.418E-02,  2.702E-04,  1.104E-11,  8.562E-14,  4.860E+03,  3.769E+01, 255
2019-146T00:38:54.068,   1, 180,   1,    30,   4,          0,     41.614,  99294.559,    44.645,    -5.933,     0.851,   171.056, 2, 5.486E-04, -1.00,   2,  1.378E-02,  2.646E-04,  1.020E-11,  8.349E-14,  4.621E+03,  3.782E+01, 255
2019-146T00:39:24.068,   1, 180,   1,    30,   4,          0,     41.614,  99294.559,    44.642,    -5.932,     0.851,   170.753, 2, 5.486E-04, -1.00,   2,  1.397E-02,  2.639E-04,  9.358E-12,  8.094E-14,  4.180E+03,  3.615E+01, 255
2019-146T00:39:54.068,   1, 180,   1,    30,   4,          0,     41.614,  99294.559,    44.639,    -5.931,     0.851,   170.451, 2, 5.486E-04, -1.00,   2,  1.454E-02,  2.593E-04,  9.342E-12,  7.951E-14,  4.011E+03,  3.414E+01, 255
2019-146T00:40:24.069,   1, 180,   1,    30,   4,          0,     41.614,  99294.559,    44.636,    -5.931,     0.851,   170.148, 2, 5.486E-04, -1.00,   2,  1.572E-02,  2.714E-04,  9.101E-12,  7.812E-14,  3.614E+03,  3.102E+01, 255
2019-146T00:40:54.069,   1, 180,   1,    30,   4,          0,     41.614,  99294.559,    44.633,    -5.930,     0.851,   169.846, 2, 5.486E-04, -1.00,   2,  1.475E-02,  2.588E-04,  8.742E-12,  7.852E-14,  3.698E+03,  3.322E+01, 255
2019-146T00:41:24.069,   1, 180,   1,    30,   4,          0,     41.614,  99294.559,    44.630,    -5.929,     0.851,   169.543, 2, 5.486E-04, -1.00,   2,  1.475E-02,  2.621E-04,  8.521E-12,  7.676E-14,  3.605E+03,  3.247E+01, 255
2019-146T00:41:54.070,   1, 180,   1,    30,   4,          0,     41.614,  99294.559,    44.628,    -5.929,     0.851,   169.241, 2, 5.486E-04, -1.00,   2,  1.299E-02,  2.688E-04,  7.987E-12,  7.927E-14,  3.838E+03,  3.809E+01, 255
2019-146T00:42:24.070,   1, 180,   1,    30,   4,          0,     41.614,  99294.559,    44.625,    -5.928,     0.851,   168.939, 2, 5.486E-04, -1.00,   2,  1.633E-02,  2.654E-04,  9.822E-12,  8.146E-14,  3.753E+03,  3.113E+01, 255
2019-146T00:42:54.070,   1, 180,   1,    30,   4,          0,     41.614,  99294.559,    44.622,    -5.927,     0.851,   168.636, 2, 5.486E-04, -1.00,   2,  1.777E-02,  2.804E-04,  9.631E-12,  7.849E-14,  3.384E+03,  2.758E+01, 255
2019-146T00:43:24.071,   1, 180,   1,    30,   4,          0,     41.614,  99294.559,    44.619,    -5.926,     0.851,   168.334, 2, 5.486E-04, -1.00,   2,  1.825E-02,  2.834E-04,  9.285E-12,  7.714E-14,  3.176E+03,  2.639E+01, 255
2019-146T00:43:54.071,   1, 180,   1,    30,   4,          0,     41.614,  99294.559,    44.616,    -5.926,     0.851,   168.031, 2, 5.486E-04, -1.00,   2,  1.498E-02,  2.630E-04,  8.346E-12,  7.695E-14,  3.478E+03,  3.207E+01, 255
2019-146T00:44:24.071,   1, 180,   1,    30,   4,          0,     41.614,  99294.559,    44.613,    -5.925,     0.851,   167.729, 2, 5.486E-04, -1.00,   2,  1.567E-02,  2.724E-04,  9.263E-12,  8.060E-14,  3.690E+03,  3.211E+01, 255
2019-146T00:44:54.072,   1, 180,   1,    30,   4,          0,     41.614,  99294.559,    44.610,    -5.924,     0.851,   167.427, 2, 5.486E-04, -1.00,   2,  1.530E-02,  2.764E-04,  8.286E-12,  7.685E-14,  3.380E+03,  3.135E+01, 255
2019-146T00:45:24.072,   1, 180,   1,    30,   4,          0,     41.614,  99294.559,    44.608,    -5.923,     0.851,   167.124, 2, 5.486E-04, -1.00,   2,  1.652E-02,  2.659E-04,  9.237E-12,  7.820E-14,  3.490E+03,  2.955E+01, 255
2019-146T00:45:54.072,   1, 180,   1,    30,   4,          0,     41.614,  99294.559,    44.605,    -5.923,     0.851,   166.822, 2, 5.486E-04, -1.00,   2,  1.768E-02,  2.706E-04,  9.464E-12,  7.855E-14,  3.341E+03,  2.772E+01, 255
2019-146T00:46:24.073,   1, 180,   1,    30,   4,          0,     41.614,  99294.559,    44.602,    -5.922,     0.851,   166.519, 2, 5.486E-04, -1.00,   2,  2.115E-02,  2.992E-04,  1.019E-11,  8.120E-14,  3.005E+03,  2.396E+01, 255
2019-146T00:46:54.073,   1, 180,   1,    30,   4,          0,     41.614,  99294.559,    44.599,    -5.921,     0.851,   166.217, 2, 5.486E-04, -1.00,   2,  2.830E-02,  3.204E-04,  1.154E-11,  8.305E-14,  2.544E+03,  1.832E+01, 255
2019-146T00:47:24.074,   1, 180,   1,    30,   4,          0,     41.614,  99294.559,    44.596,    -5.921,     0.851,   165.914, 2, 5.486E-04, -1.00,   2,  3.373E-02,  3.454E-04,  1.154E-11,  8.104E-14,  2.135E+03,  1.499E+01, 255
2019-146T00:47:54.074,   1, 180,   1,    30,   4,          0,     41.614,  99294.559,    44.593,    -5.920,     0.851,   165.612, 2, 5.486E-04, -1.00,   2,  2.330E-02,  3.047E-04,  1.017E-11,  8.023E-14,  2.724E+03,  2.149E+01, 255
2019-146T00:48:24.074,   1, 180,   1,    30,   4,          0,     41.614,  99294.559,    44.590,    -5.919,     0.851,   165.310, 2, 5.486E-04, -1.00,   2,  1.911E-02,  2.826E-04,  9.224E-12,  7.769E-14,  3.013E+03,  2.537E+01, 255
2019-146T00:48:54.075,   1, 180,   1,    30,   4,          0,     41.614,  99294.559,    44.588,    -5.918,     0.851,   165.007, 2, 5.486E-04, -1.00,   2,  4.833E-02,  4.557E-04,  1.071E-11,  7.963E-14,  1.383E+03,  1.028E+01, 255
2019-146T00:49:24.075,   1, 180,   1,    30,   4,          0,     41.614,  99294.559,    44.585,    -5.918,     0.851,   164.705, 2, 5.486E-04, -1.00,   2,  7.908E-02,  5.896E-04,  1.160E-11,  8.068E-14,  9.159E+02,  6.368E+00, 255
2019-146T00:49:54.075,   1, 180,   1,    30,   4,          0,     41.614,  99294.559,    44.582,    -5.917,     0.851,   164.402, 2, 5.486E-04, -1.00,   2,  6.474E-02,  5.216E-04,  1.155E-11,  8.294E-14,  1.113E+03,  7.996E+00, 255
2019-146T00:50:24.076,   1, 180,   1,    30,   4,          0,     41.614,  99294.559,    44.579,    -5.916,     0.851,   164.100, 2, 5.486E-04, -1.00,   2,  6.617E-02,  5.223E-04,  1.160E-11,  8.024E-14,  1.094E+03,  7.569E+00, 255
2019-146T00:50:54.076,   1, 180,   1,    30,   4,          0,     41.614,  99294.559,    44.576,    -5.915,     0.851,   163.798, 2, 5.486E-04, -1.00,   2,  6.511E-02,  5.247E-04,  1.138E-11,  7.891E-14,  1.091E+03,  7.564E+00, 255
2019-146T00:51:24.076,   1, 180,   1,    30,   4,          0,     41.614,  99294.559,    44.573,    -5.915,     0.851,   163.495, 2, 5.486E-04, -1.00,   2,  4.110E-02,  3.925E-04,  1.035E-11,  7.923E-14,  1.572E+03,  1.203E+01, 255
2019-146T00:51:54.077,   1, 180,   1,    30,   4,          0,     41.614,  99294.559,    44.570,    -5.914,     0.851,   163.193, 2, 5.486E-04, -1.00,   2,  4.961E-02,  4.361E-04,  1.101E-11,  7.971E-14,  1.385E+03,  1.003E+01, 255